Weather in Alpharetta

United States     34°04′22″N   84°17′42″W
temp.,
°C
wind,
m/s
gust,
m/s
humid.,
%
clouds,
%
prec.,
mm/h
press.,
hPa
HPBL,
m
18 september, sat
sat1823:00+23ese1280100 0.0 102081
02:00+22ene1382100 0.1 1019110
05:00+21ene1387100 0.1 1019102
08:00+21ene149399 0.7 1020145
11:00+25ene2374100 0.5 1020435
14:00+25ese1280100 2.8 101974
17:00+22ne3591100 3.4 1018209
20:00+21ne3795100 6.2 1018219
19 september, sun
sun1923:00+21ene1493100 0.2 1019136
02:00+21nne1194100 1.3 101843
05:00+20ese1397100 1.9 1018142
08:00+20e1496100 4.8 1019165
11:00+22e3692100 2.1 1020299
14:00+22ese3790100 3.7 1018192
17:00+23e2787100 1.7 1017334
20:00+21e2696100 3.3 1018186
20 september, mon
mon2023:00+20ene2697100 3.1 1019222
02:00+20e2898100 5.1 1018365
05:00+20ene3898100 2.0 1018328
08:00+20e3998100 6.6 1018451
11:00+20e3998100 9.8 1020565
14:00+21e4996100 10.4 1019552
17:00+22e4995100 0.8 1018565
20:00+21e41097100 0.9 1019633
21 september, tue
tue2123:00+20e3998100 0.2 1020559
02:00+20e3998100 0.3 1019563
05:00+20e3798100 0.0 1019490
08:00+20ene3798100 0.5 1019436
11:00+20ene3797100 0.8 1021398
14:00+20ne3697100 1.9 1020462
17:00+20ene3894100 0.2 1019416
20:00+19ene3894100 0.2 1019414
22 september, wed
wed2223:00+19e389481 0.0 1018373
02:00+19ene249475 0.0 1018298
05:00+19ene1295100 0.0 1016172
08:00+19nw129369 0.0 1016176
11:00+21wnw358471 0.0 1017417
14:00+24nnw456772 0.1 10151027
17:00+24nnw675613 0.0 10141352
20:00+20nnw511590 0.0 1016920